Terug naar catalogus

STARLINK-34512

ActiefCommunicatieVLEO
NORAD 64419·PAYLOAD·🇺🇸 United States

Gelanceerd Jun 17, 2025 vanaf Vandenberg Space Force Base

Loading…

Volgende Passages (komende 24 uur)

TLE

VersSource: CelesTrak SupGP

Epoch: Sep 14, 2026, 21:06 UTC

1 64419C 25129H   26257.87965278 -.00015202  00000+0 -52919-3 0  2574
2 64419  69.9989 315.6002 0003480 271.2523  37.9435 15.29563690    18

Volg STARLINK-34512 in realtime met AllMySat

Download on the App Store